{"data":{"norad_id":47817,"epoch":"2026-05-24T23:44:30.054336Z","epoch_age_seconds":66114,"freshness":"FRESH","line1":"1 47817U 21018AG  26144.98923674  .00002339  00000+0  87123-4 0  9995","line2":"2 47817  53.1571 248.2563 0001125  87.7635 272.3495 15.31699922288407","mean_motion":15.31699922,"eccentricity":0.0001125,"inclination_deg":53.1571,"raan_deg":248.2563,"arg_perigee_deg":87.7635,"mean_anomaly_deg":272.3495,"bstar":8.7123e-5,"rev_number":28840,"period_min":94.013192748599,"perigee_km":469.96972905148,"apogee_km":471.51072642772,"semimajor_km":6848.8772277396,"source":"CELESTRAK","updated_at":"2026-05-25T13:38:16.602924Z"}}